When you browse on this site, cookies collect data to enhance your experience and personalize the content and advertising you see.
Visit our Privacy Policy to learn more. By continuing to use the site, you agree to this use of cookies and data.
  • în România
  • Lista ţărilor
  • Pe 7 zile
  • Temperatura apei
  • Meteo pe hartă
  • Widget-uri
  • user-avatar
    Intrare

    Meteo pe oră la Serowe

    Astăzi, 22 Septembrie, Duminică

    Timp Temperatura Precipitaţii Vânt Presiune Umiditate
    00:00 +19°C° 0 mm 2 m/s 666 mmHg 28%
    01:00 +18°C° 0 mm 2 m/s 666 mmHg 30%
    02:00 +17°C° 0 mm 2 m/s 666 mmHg 32%
    03:00 +17°C° 0 mm 2 m/s 666 mmHg 34%
    04:00 +16°C° 0 mm 2 m/s 665 mmHg 36%
    05:00 +15°C° 0 mm 2 m/s 665 mmHg 38%
    06:00 +18°C° 0 mm 2 m/s 666 mmHg 33%
    07:00 +21°C° 0 mm 3 m/s 667 mmHg 29%
    08:00 +24°C° 0 mm 3 m/s 668 mmHg 24%
    09:00 +27°C° 0 mm 3 m/s 668 mmHg 19%
    10:00 +30°C° 0 mm 3 m/s 668 mmHg 15%
    11:00 +34°C° 0 mm 4 m/s 669 mmHg 10%
    12:00 +35°C° 0 mm 3 m/s 668 mmHg 9%
    13:00 +36°C° 0 mm 3 m/s 668 mmHg 7%
    14:00 +37°C° 0 mm 2 m/s 667 mmHg 6%
    15:00 +37°C° 0 mm 2 m/s 667 mmHg 6%
    16:00 +36°C° 0 mm 2 m/s 666 mmHg 5%
    17:00 +36°C° 0 mm 2 m/s 666 mmHg 5%
    18:00 +32°C° 0 mm 2 m/s 666 mmHg 7%
    19:00 +28°C° 0 mm 2 m/s 665 mmHg 9%
    20:00 +25°C° 0 mm 2 m/s 665 mmHg 10%
    21:00 +24°C° 0 mm 2 m/s 665 mmHg 10%
    22:00 +23°C° 0 mm 2 m/s 666 mmHg 10%
    23:00 +23°C° 0 mm 2 m/s 666 mmHg 11%

    Mâine, 23 Septembrie, Luni

    Timp Temperatura Precipitaţii Vânt Presiune Umiditate
    00:00 +21°C° 0 mm 2 m/s 666 mmHg 12%
    01:00 +21°C° 0 mm 2 m/s 666 mmHg 13%
    02:00 +20°C° 0 mm 2 m/s 666 mmHg 14%
    03:00 +19°C° 0 mm 2 m/s 666 mmHg 17%
    04:00 +18°C° 0 mm 2 m/s 666 mmHg 20%
    05:00 +17°C° 0 mm 3 m/s 666 mmHg 23%
    06:00 +19°C° 0 mm 3 m/s 667 mmHg 22%
    07:00 +21°C° 0 mm 3 m/s 668 mmHg 21%
    08:00 +24°C° 0 mm 3 m/s 669 mmHg 19%
    09:00 +27°C° 0 mm 3 m/s 669 mmHg 17%
    10:00 +29°C° 0 mm 4 m/s 670 mmHg 14%
    11:00 +33°C° 0 mm 5 m/s 670 mmHg 12%
    12:00 +34°C° 0 mm 5 m/s 670 mmHg 13%
    13:00 +35°C° 0 mm 6 m/s 669 mmHg 15%
    14:00 +35°C° 0 mm 6 m/s 669 mmHg 16%
    15:00 +34°C° 0 mm 7 m/s 669 mmHg 20%
    16:00 +33°C° 0 mm 7 m/s 668 mmHg 25%
    17:00 +32°C° 0 mm 8 m/s 668 mmHg 29%
    18:00 +28°C° 0 mm 8 m/s 668 mmHg 39%
    19:00 +24°C° 0 mm 8 m/s 668 mmHg 50%
    20:00 +21°C° 0 mm 8 m/s 668 mmHg 60%
    21:00 +18°C° 0 mm 8 m/s 668 mmHg 68%
    22:00 +16°C° 0 mm 7 m/s 669 mmHg 75%
    23:00 +15°C° 0 mm 6 m/s 669 mmHg 83%

    Poimâine, 24 Septembrie, Marţi

    Timp Temperatura Precipitaţii Vânt Presiune Umiditate
    00:00 +15°C° 0 mm 7 m/s 669 mmHg 82%
    01:00 +15°C° 0 mm 7 m/s 669 mmHg 82%
    02:00 +15°C° 0 mm 7 m/s 669 mmHg 81%
    03:00 +15°C° 0 mm 7 m/s 669 mmHg 80%
    04:00 +15°C° 0 mm 7 m/s 669 mmHg 79%
    05:00 +15°C° 0 mm 7 m/s 670 mmHg 79%
    06:00 +15°C° 0 mm 7 m/s 670 mmHg 77%
    07:00 +16°C° 0 mm 7 m/s 670 mmHg 75%
    08:00 +16°C° 0 mm 6 m/s 671 mmHg 72%
    09:00 +17°C° 0 mm 7 m/s 671 mmHg 68%
    10:00 +18°C° 0 mm 7 m/s 671 mmHg 63%
    11:00 +20°C° 0 mm 7 m/s 671 mmHg 59%
    12:00 +22°C° 0 mm 6 m/s 670 mmHg 52%
    13:00 +24°C° 0 mm 6 m/s 670 mmHg 46%
    14:00 +27°C° 0 mm 5 m/s 670 mmHg 39%
    15:00 +27°C° 0 mm 5 m/s 669 mmHg 39%
    16:00 +27°C° 0 mm 4 m/s 669 mmHg 39%
    17:00 +27°C° 0 mm 4 m/s 668 mmHg 39%
    18:00 +25°C° 0 mm 4 m/s 669 mmHg 46%
    19:00 +21°C° 0 mm 5 m/s 669 mmHg 53%
    20:00 +19°C° 0 mm 5 m/s 669 mmHg 60%
    21:00 +17°C° 0 mm 5 m/s 669 mmHg 63%
    22:00 +16°C° 0 mm 6 m/s 669 mmHg 67%
    23:00 +16°C° 0 mm 6 m/s 669 mmHg 70%

    25 Septembrie, Miercuri

    Timp Temperatura Precipitaţii Vânt Presiune Umiditate
    00:00 +15°C° 0 mm 6 m/s 669 mmHg 74%
    01:00 +14°C° 0 mm 6 m/s 669 mmHg 78%
    02:00 +13°C° 0 mm 6 m/s 669 mmHg 81%
    03:00 +13°C° 0 mm 6 m/s 669 mmHg 83%
    04:00 +11°C° 0 mm 6 m/s 669 mmHg 84%
    05:00 +11°C° 0 mm 6 m/s 669 mmHg 86%
    06:00 +11°C° 0 mm 7 m/s 670 mmHg 84%
    07:00 +11°C° 0 mm 8 m/s 671 mmHg 82%
    08:00 +12°C° 0 mm 9 m/s 671 mmHg 80%
    09:00 +13°C° 0 mm 9 m/s 672 mmHg 71%
    10:00 +16°C° 0 mm 9 m/s 672 mmHg 63%
    11:00 +17°C° 0 mm 9 m/s 672 mmHg 55%
    12:00 +20°C° 0 mm 8 m/s 672 mmHg 48%
    13:00 +22°C° 0 mm 8 m/s 673 mmHg 41%
    14:00 +24°C° 0 mm 8 m/s 673 mmHg 35%
    15:00 +24°C° 0 mm 9 m/s 672 mmHg 37%
    16:00 +23°C° 0 mm 9 m/s 672 mmHg 39%
    17:00 +22°C° 0 mm 9 m/s 672 mmHg 42%
    18:00 +20°C° 0 mm 8 m/s 672 mmHg 48%
    19:00 +17°C° 0 mm 6 m/s 672 mmHg 55%
    20:00 +15°C° 0 mm 5 m/s 673 mmHg 61%
    21:00 +14°C° 0 mm 5 m/s 673 mmHg 63%
    22:00 +13°C° 0 mm 6 m/s 673 mmHg 65%
    23:00 +11°C° 0 mm 6 m/s 673 mmHg 67%

    26 Septembrie, Joi

    Timp Temperatura Precipitaţii Vânt Presiune Umiditate
    00:00 +10°C° 0 mm 6 m/s 673 mmHg 70%
    01:00 +9°C° 0 mm 5 m/s 673 mmHg 73%
    02:00 +8°C° 0 mm 5 m/s 672 mmHg 75%
    03:00 +7°C° 0 mm 5 m/s 672 mmHg 80%
    04:00 +6°C° 0 mm 5 m/s 672 mmHg 84%
    05:00 +6°C° 0 mm 5 m/s 672 mmHg 89%
    06:00 +6°C° 0 mm 5 m/s 673 mmHg 82%
    07:00 +7°C° 0 mm 6 m/s 673 mmHg 75%
    08:00 +8°C° 0 mm 6 m/s 674 mmHg 68%
    09:00 +10°C° 0 mm 7 m/s 674 mmHg 54%
    10:00 +14°C° 0 mm 7 m/s 674 mmHg 40%
    11:00 +17°C° 0 mm 7 m/s 675 mmHg 26%
    12:00 +18°C° 0 mm 7 m/s 674 mmHg 22%
    13:00 +21°C° 0 mm 7 m/s 674 mmHg 19%
    14:00 +22°C° 0 mm 6 m/s 673 mmHg 16%
    15:00 +22°C° 0 mm 6 m/s 673 mmHg 17%
    16:00 +21°C° 0 mm 6 m/s 672 mmHg 17%
    17:00 +21°C° 0 mm 5 m/s 672 mmHg 18%
    18:00 +19°C° 0 mm 4 m/s 672 mmHg 23%
    19:00 +15°C° 0 mm 4 m/s 672 mmHg 28%
    20:00 +12°C° 0 mm 3 m/s 672 mmHg 33%
    21:00 +12°C° 0 mm 3 m/s 672 mmHg 36%
    22:00 +11°C° 0 mm 3 m/s 672 mmHg 39%
    23:00 +10°C° 0 mm 3 m/s 672 mmHg 42%

    27 Septembrie, Vineri

    Timp Temperatura Precipitaţii Vânt Presiune Umiditate
    00:00 +9°C° 0 mm 3 m/s 671 mmHg 47%
    01:00 +8°C° 0 mm 3 m/s 671 mmHg 52%
    02:00 +7°C° 0 mm 3 m/s 670 mmHg 57%
    03:00 +7°C° 0 mm 3 m/s 670 mmHg 61%
    04:00 +5°C° 0 mm 3 m/s 670 mmHg 65%
    05:00 +4°C° 0 mm 3 m/s 670 mmHg 68%
    06:00 +7°C° 0 mm 3 m/s 671 mmHg 63%
    07:00 +8°C° 0 mm 4 m/s 671 mmHg 57%
    08:00 +10°C° 0 mm 5 m/s 672 mmHg 52%
    09:00 +14°C° 0 mm 4 m/s 672 mmHg 42%
    10:00 +18°C° 0 mm 4 m/s 673 mmHg 32%
    11:00 +21°C° 0 mm 4 m/s 673 mmHg 22%
    12:00 +23°C° 0 mm 4 m/s 672 mmHg 19%
    13:00 +25°C° 0 mm 4 m/s 672 mmHg 16%
    14:00 +27°C° 0 mm 4 m/s 671 mmHg 13%
    15:00 +27°C° 0 mm 4 m/s 670 mmHg 13%
    16:00 +27°C° 0 mm 4 m/s 670 mmHg 13%
    17:00 +26°C° 0 mm 4 m/s 669 mmHg 13%
    18:00 +22°C° 0 mm 3 m/s 669 mmHg 18%
    19:00 +19°C° 0 mm 2 m/s 668 mmHg 22%
    20:00 +16°C° 0 mm 2 m/s 668 mmHg 27%
    21:00 +15°C° 0 mm 2 m/s 668 mmHg 29%
    22:00 +14°C° 0 mm 2 m/s 668 mmHg 30%
    23:00 +14°C° 0 mm 2 m/s 668 mmHg 32%
    Arată mai mult